Flight Track Log - Related Links

Times and Time Zones

All times are in EDT time to prevent confusion due to time zone crossing. See the EJA982 flight status page for this flight to view local times or setup timezone preferences in your user account.

Time Position Orientation Groundspeed Altitude Reporting Facility
EDT Latitude Longitude Course Direction KTS MPH feet Rate Location/Type
08:21AM 34.0644 -84.5678 30° Northeast 224 258 5,300  Level Atlanta Center
08:22AM 34.1356 -84.5181 30° Northeast 272 313 9,500 3,750 Climbing Atlanta Center
08:23AM 34.2153 -84.4558 33° Northeast 315 362 12,800 3,450 Climbing Atlanta Center
08:24AM 34.3094 -84.3808 33° Northeast 376 433 16,400 2,950 Climbing Atlanta Center
08:25AM 34.4181 -84.3358 19° North 398 458 18,700 1,950 Climbing Atlanta Center
08:26AM 34.5369 -84.3036 13° North 422 486 20,300 1,550 Climbing Atlanta Center
08:27AM 34.6581 -84.2661 14° North 441 507 21,800 1,400 Climbing Atlanta Center
08:28AM 34.7644 -84.2361 13° North 441 507 23,100 1,300 Climbing Atlanta Center
08:29AM 34.8878 -84.2008 13° North 441 507 24,400 1,350 Climbing Atlanta Center
08:30AM 35.0108 -84.1656 13° North 446 513 25,800 1,200 Climbing Atlanta Center
08:31AM 35.1403 -84.1250 14° North 457 526 26,800 1,100 Climbing Atlanta Center
08:32AM 35.2675 -84.0869 14° North 462 532 28,000 1,150 Climbing Atlanta Center
08:33AM 35.3992 -84.0489 13° North 467 537 29,100 1,050 Climbing Atlanta Center
08:34AM 35.5306 -84.0081 14° North 472 543 30,100 950 Climbing Atlanta Center
08:35AM 35.6639 -83.9697 13° North 478 550 31,000 500 Climbing Atlanta Center
08:36AM 35.8039 -83.9261 14° North 490 564 31,100 500 Climbing Atlanta Center
08:37AM 35.9372 -83.8669 20° North 504 580 32,000 450 Climbing Atlanta Center
08:38AM 36.0558 -83.7664 34° Northeast 504 580 32,000 243 Level Atlanta Center
08:40AM 36.2803 -83.5786 34° Northeast 539 620 32,700 759 Climbing Indianapolis Center
08:41AM 36.4156 -83.4642 34° Northeast 535 616 34,200 1,426 Climbing Indianapolis Center
08:42AM 36.5386 -83.3611 34° Northeast 534 615 35,600 1,377 Climbing Indianapolis Center
08:43AM 36.6592 -83.2578 35° Northeast 525 604 37,000 1,377 Climbing Indianapolis Center
08:44AM 36.7797 -83.1536 35° Northeast 523 602 38,400 1,377 Climbing Indianapolis Center
08:45AM 36.9022 -83.0497 34° Northeast 525 604 39,800 1,279 Climbing Indianapolis Center
08:46AM 37.0281 -82.9422 34° Northeast 532 612 41,000 590 Climbing Indianapolis Center
08:47AM 37.1503 -82.8344 35° Northeast 528 608 41,000  Level Indianapolis Center
08:48AM 37.2719 -82.7281 35° Northeast 536 617 41,000  Level Indianapolis Center
08:49AM 37.3942 -82.6217 35° Northeast 533 613 41,000  Level Indianapolis Center
08:50AM 37.5150 -82.5167 35° Northeast 528 608 41,000  Level Indianapolis Center
08:51AM 37.6553 -82.3917 35° Northeast 528 608 41,000  Level Indianapolis Center
08:52AM 37.7747 -82.2856 35° Northeast 524 603 41,000  Level Indianapolis Center
08:53AM 37.8950 -82.1803 35° Northeast 523 602 41,000  Level Indianapolis Center
08:54AM 38.0161 -82.0711 35° Northeast 525 604 41,000  Level Indianapolis Center
08:55AM 38.1361 -81.9636 35° Northeast 526 605 41,000  Level Indianapolis Center
08:56AM 38.2550 -81.8569 35° Northeast 524 603 41,000  Level Indianapolis Center
08:57AM 38.3703 -81.7425 38° Northeast 527 606 41,000  Level Indianapolis Center
08:58AM 38.4669 -81.6031 48° Northeast 527 606 41,000  Level Indianapolis Center
08:59AM 38.5619 -81.4658 48° Northeast 526 605 41,000  Level Indianapolis Center
09:00AM 38.6569 -81.3311 48° Northeast 524 603 41,000  Level Indianapolis Center
09:01AM 38.7714 -81.1667 48° Northeast 520 598 41,000  Level Indianapolis Center
09:02AM 38.8664 -81.0281 49° Northeast 519 597 41,000  Level Indianapolis Center
09:03AM 38.9628 -80.8886 48° Northeast 524 603 41,000  Level Indianapolis Center
09:04AM 39.0589 -80.7494 48° Northeast 521 600 41,000  Level Indianapolis Center
09:05AM 39.1581 -80.6125 47° Northeast 521 600 41,000  Level Indianapolis Center
09:06AM 39.2567 -80.4758 47° Northeast 520 598 41,000  Level Indianapolis Center
09:07AM 39.3539 -80.3389 47° Northeast 519 597 41,000  Level Indianapolis Center
09:08AM 39.4142 -80.2606 45° Northeast 514 592 41,000  Level Cleveland Center
09:09AM 39.5117 -80.1231 47° Northeast 514 592 41,000  Level Cleveland Center
09:10AM 39.6028 -79.9850 49° Northeast 509 586 41,000  Level Cleveland Center
09:11AM 39.6981 -79.8519 47° Northeast 504 580 41,000  Level Cleveland Center
09:12AM 39.7886 -79.7131 50° Northeast 504 580 41,000  Level Cleveland Center
09:13AM 39.8833 -79.5739 48° Northeast 504 580 41,000  Level Cleveland Center
09:14AM 39.9739 -79.4372 49° Northeast 504 580 41,000  Level Cleveland Center
09:15AM 40.0619 -79.3000 50° Northeast 499 574 41,000  Level Cleveland Center
09:16AM 40.1564 -79.1625 48° Northeast 499 574 41,000  Level Cleveland Center
09:17AM 40.2483 -79.0217 49° Northeast 499 574 41,000  Level Cleveland Center
09:18AM 40.3400 -78.8806 50° Northeast 499 574 41,000  Level Cleveland Center
09:19AM 40.4317 -78.7392 50° Northeast 506 582 41,000  Level Cleveland Center
09:20AM 40.5233 -78.6028 48° Northeast 506 582 41,000  Level Cleveland Center
09:22AM 40.7386 -78.2653 50° Northeast 509 586 41,000  Level New York Center
09:23AM 40.8194 -78.1397 50° Northeast 509 586 41,000  Level New York Center
09:24AM 40.9094 -77.9983 50° Northeast 503 579 41,000 -248 Level New York Center
09:25AM 40.9814 -77.8436 58° Northeast 493 567 40,500 -893 Descending New York Center
09:26AM 41.0508 -77.6914 59° Northeast 487 560 39,200 -1,279 Descending New York Center
09:27AM 41.1183 -77.5356 60° Northeast 475 547 37,900 -1,311 Descending New York Center
09:28AM 41.1894 -77.3800 59° Northeast 481 554 36,600 -1,311 Descending New York Center
09:29AM 41.2589 -77.2183 60° Northeast 492 566 35,300 -1,279 Descending New York Center
09:30AM 41.3319 -77.0594 58° Northeast 492 566 34,000 -1,373 Descending New York Center
09:31AM 41.4361 -76.9392 41° Northeast 492 566 32,600 -2,000 Descending New York Center
09:32AM 41.5558 -76.8006 41° Northeast 503 579 30,100 -1,785 Descending New York Center
09:33AM 41.6525 -76.7008 38° Northeast 494 568 29,000 -1,354 Descending New York Center
09:35AM 41.8833 -76.4478 39° Northeast 472 543 25,700 -1,485 Descending Boston Center
09:36AM 41.9792 -76.3364 41° Northeast 460 529 24,200 -850 Descending Boston Center
09:37AM 42.0544 -76.2011 53° Northeast 455 524 24,000 -100 Descending Boston Center
09:38AM 42.1036 -76.0333 68° East 450 518 24,000  Level Boston Center
09:39AM 42.1525 -75.8681 68° East 462 532 24,000  Level Boston Center
09:40AM 42.2011 -75.7053 68° East 467 537 24,000  Level Boston Center
09:41AM 42.2475 -75.5394 69° East 467 537 24,000  Level Boston Center
09:42AM 42.2956 -75.3819 68° East 462 532 24,000 -500 Level Boston Center
09:43AM 42.3411 -75.2239 69° East 456 525 23,000 -1,700 Descending Boston Center
09:44AM 42.3867 -75.0683 68° East 456 525 20,600 -2,350 Descending Boston Center
09:45AM 42.4339 -74.9156 67° East 440 506 18,300 -2,350 Descending Boston Center
09:46AM 42.4747 -74.7539 71° East 427 491 15,900 -2,300 Descending Boston Center
09:47AM 42.5150 -74.6175 68° East 406 467 13,700 -2,050 Descending Boston Center
09:48AM 42.5550 -74.4778 69° East 387 445 11,800 -1,800 Descending Boston Center
09:49AM 42.5728 -74.4222 66° East 354 407 11,000 -1,200 Descending Boston Center
09:49AM 42.5781 -74.3631 83° East 337 388 10,600 -1,180 Descending Boston Center
09:50AM 42.5767 -74.3150 92° East 269 310 9,800 -1,700 Descending Boston Center
09:50AM 42.5756 -74.2586 92° East 288 331 8,900 -2,111 Descending Boston Center
09:51AM 42.5742 -74.2192 93° East 263 303 7,900 -2,100 Descending Boston Center
09:51AM 42.5708 -74.1569 94° East 267 307 6,800 -1,770 Descending Boston Center
09:52AM 42.5692 -74.1231 94° East 261 300 6,100 -1,700 Descending Boston Center
09:52AM 42.5681 -74.0639 91° East 256 295 5,100 -1,770 Descending Boston Center
09:53AM 42.5686 -74.0189 89° East 249 287 4,300 -1,200 Descending Boston Center
09:53AM 42.5775 -73.9767 74° East 240 276 3,900 -896 Descending Boston Center
09:54AM 42.5906 -73.9347 67° East 214 246 3,300 -900 Descending Boston Center
09:54AM 42.6014 -73.9039 64° Northeast 218 251 3,000 -600 Descending Boston Center
09:55AM 42.6164 -73.8706 59° Northeast 182 209 2,700 -400 Descending Boston Center
09:55AM 42.6253 -73.8453 64° Northeast 192 221 2,600 -590 Descending Boston Center
09:56AM 42.6358 -73.8144 65° Northeast 148 170 2,100 -200 Descending Boston Center
09:56AM 42.6403 -73.7978 70° East 186 214 2,400 -764 Climbing Boston Center
09:57AM 42.6694 -73.8039 351° North 141 162 1,400 -938 Descending Boston Center
09:58AM 42.7089 -73.8075 356° North 126 145 900 -455 Descending Boston Center

Login

Don't have an account? Register now (free) for customized features, flight alerts, and more!